STARLINK-34009, 63849

Orbit data source: Space-Track

STARLINK-34009, 63849 is a payload satellite owned by SpaceX/Seattle (US) in LEO that was launched on Wed, 07 May 2025 UTC via an FALCON 9 launch vehicle from the Air Force Eastern Test Range (AFETR). Payload-class satellites include a variety of spacecraft equipped with specific instruments for various scientific and technological missions. These include communications satellites like Starlink; space stations such as the ISS; scientific satellites like the Hubble; Earth observation satellites from companies like Planet Labs, Umbra, and HawkEye 360; GPS; miniature CubeSats for education and research; and military/defense satellites.

Loading next visibility...
Identifier
63849, 2025-093P
Orbit
LEO
Country
Flag of USUS
Related business
Manufacturer
SpaceX/Seattle
Mission
Operational Commercial Communications
Bus & Motor
STARLINK V2MO, Unknown motor
Mass
575 kg wet, ~530 kg dry
Launch date (UTC)
2025-05-07 (7 months ago)
Launch vehicle
FALCON 9
Launch site
Air Force Eastern Test Range (AFETR)
Object type
Payload
Rocket body
Debris
Shape & HBR
Box + 2 Pan, 17.7 m
Radar Cross Section
36.964 m², Large (>1 m²)

Expand to show TLE details & history
Last TLE update: 7 hours ago

TLE from 7 hours ago
0 STARLINK-34009
1 63849U 25093P   25349.89163370  .00023529  00000-0  86160-3 0  9994
2 63849  42.9998 187.9172 0001744 262.8767  97.1886 15.27588665 35192
Epoch: 2025-12-15T21:23Z
TLE epoch observation values (Epoch: 2025-12-15T21:23:57.151Z)
Latitude
-0.00005°
Longitude
142.14533°
Altitude
482.948 km
Speed
7.626 km/s
True Right ascension
12h 31m 40s
True Declination
0° 00' 00"
Sunlit
Object was in daylight at epoch
Visualization orbit readout
Latitude
Unknown
Longitude
Unknown
Altitude
Unknown
Speed
Unknown
Apparent Right ascension
Unknown
Apparent Declination
Unknown
Sunlit
N/A
Visualization observer readout
Local Sidereal Time
03:12:45
Azimuth
Unknown
Elevation
Unknown
Doppler factor
Unknown
Orbital elements
Apogee altitude
486.165 km
Perigee altitude
483.771 km
Semi-major axis
6,863.105 km
Eccentricity
0.00017
Inclination
42.9998°
RAAN
187.9172°
Arg. of periapsis
262.8767°
True anomaly
97.20843°
Mean anomaly
97.1886°
Eccentric anomaly
97.19851°
Mean motion
3.81735 °/min
Orbital period
94.31 mins
BSTAR
0.0008616
Loading maneuver chart data...
Computing Atmospheric mass density...
Loading historical data...
Loading historical data...
Loading historical data...
Loading historical data...
Loading historical data...
Loading historical data...
Loading historical data...

Documentation

Showing up to 5 results
|